sat.trackr.live / text

‹ back to catalog

STARLINK-5939

NORAD 56015 · 2023-042AF

PAYLOAD ACTIVE UNKNOWN

§ Identity

Operator
Country
US
Launch date
2023-03-24
Launch site
AFETR
Launch vehicle
Mass (kg)
RCS (m²)

Purposes: comms

External: N2YO · Heavens-Above · Gunter

§ Orbital elements

Epoch: 2026-05-24T19:59:27.106368Z

Period
94.27 min
Inclination
43.0044°
Eccentricity
0.0001231
Mean motion
15.27575305 rev/d
Perigee alt
482.2 km
Apogee alt
483.9 km
Semi-major
6,861.2 km
B*
4.8465e-6
RAAN
334.9591°
Arg perigee
246.1836°
Mean anomaly
113.8887°
Rev number
17,468

§ Raw data

STARLINK-59391 56015U 23042AF  26144.83295262 -.00000129  00000+0  48465-5 0  99962 56015  43.0044 334.9591 0001231 246.1836 113.8887 15.27575305174687

JSON: /api/v1/satellites/56015 · /tle

For live sub-satellite position, see the globe view (requires WebGL).

§ Visibility from observer

Set your observer location to see the next 7 days of passes ≥ 10°. The values pass through the URL so the page stays shareable.

No JS? Fill the form by hand. The geolocation button needs JavaScript.